GW4285 Weather Reports


Display with metric or nautical units.
time (UTC)temp
F
wind
direction
speed
MPH
gust
MPH
rain 1hr
in
rain 24hr
in
rain mn
in
humidity
%
barometer
mb
20260905200001 77 261 0.0 0.0 0.00 0.00 0.00 44 1014.8
20260905195456 76 220 0.0 0.0 0.00 0.00 0.00 45 1014.8
20260905194952 76 256 0.0 0.0 0.00 0.00 0.00 47 1014.9
20260905194451 75 250 0.0 0.0 0.00 0.00 0.00 49 1014.8
20260905193946 73 249 0.0 0.0 0.00 0.00 0.00 49 1015.0
20260905193441 73 226 0.0 0.0 0.00 0.00 0.00 54 1014.9
20260905192936 73 283 0.0 0.0 0.00 0.00 0.00 54 1015.0
20260905192431 74 241 0.0 0.0 0.00 0.00 0.00 55 1015.1
20260905191926 73 219 0.0 0.0 0.00 0.00 0.00 56 1015.0
20260905191426 74 259 0.0 0.0 0.00 0.00 0.00 54 1015.2
20260905190925 73 246 0.0 0.0 0.00 0.00 0.00 59 1015.3
20260905190423 71 240 0.0 0.0 0.00 0.00 0.00 61 1015.1
20260905185922 70 245 0.0 0.0 0.00 0.00 0.00 63 1015.2
20260905185417 71 254 0.0 0.0 0.00 0.00 0.00 60 1015.3
20260905184916 70 252 0.0 0.0 0.00 0.00 0.00 63 1015.4
20260905184410 70 247 0.0 0.0 0.00 0.00 0.00 65 1015.3
20260905183909 69 257 0.0 0.0 0.00 0.00 0.00 64 1015.3
20260905183405 68 286 0.0 0.0 0.00 0.00 0.00 65 1015.3
20260905182859 69 265 0.0 0.0 0.00 0.00 0.00 65 1015.2
20260905182353 68 264 0.0 0.0 0.00 0.00 0.00 69 1015.2
20260905181849 68 262 0.0 0.0 0.00 0.00 0.00 66 1015.3
20260905181348 66 249 0.0 0.0 0.00 0.00 0.00 69 1015.2
20260905180847 66 279 0.0 0.0 0.00 0.00 0.00 70 1015.1
20260905180342 66 242 0.0 0.0 0.00 0.00 0.00 71 1015.0
20260905175837 65 262 0.0 0.0 0.00 0.00 0.00 72 1015.1
20260905175331 65 256 0.0 0.0 0.00 0.00 0.00 75 1015.2
20260905174826 64 259 0.0 0.0 0.00 0.00 0.00 80 1015.3
20260905174322 63 242 0.0 0.0 0.00 0.00 0.00 82 1015.4
20260905173818 64 267 0.0 0.0 0.00 0.00 0.00 81 1015.3
20260905173314 64 246 0.0 0.0 0.00 0.00 0.00 81 1015.3
20260905172814 62 247 0.0 0.0 0.00 0.00 0.00 84 1015.3
20260905172312 61 266 0.0 0.0 0.00 0.00 0.00 85 1015.1
20260905171808 61 252 0.0 0.0 0.00 0.00 0.00 85 1015.2
20260905171305 60 249 0.0 0.0 0.00 0.00 0.00 87 1015.2
20260905170801 60 252 0.0 0.0 0.00 0.00 0.00 87 1015.2
20260905170256 60 255 0.0 0.0 0.00 0.00 0.00 87 1015.2
20260905165755 60 246 0.0 0.0 0.00 0.00 0.00 89 1015.3
20260905165251 59 247 0.0 0.0 0.00 0.00 0.00 91 1015.1
20260905164745 59 246 0.0 0.0 0.00 0.00 0.00 90 1015.3
20260905164240 58 248 0.0 0.0 0.00 0.00 0.00 92 1015.1
20260905163736 58 246 0.0 0.0 0.00 0.00 0.00 92 1015.1
20260905163233 57 247 0.0 0.0 0.00 0.00 0.00 95 1015.1
20260905162728 56 249 0.0 0.0 0.00 0.00 0.00 95 1015.0
20260905162227 56 248 0.0 0.0 0.00 0.00 0.00 95 1015.0
20260905161722 56 252 0.0 0.0 0.00 0.00 0.00 94 1015.0
20260905161220 56 305 0.0 0.0 0.00 0.00 0.00 93 1015.1
20260905160719 56 305 0.0 0.0 0.00 0.00 0.00 93 1015.1
20260905160214 56 305 0.0 0.0 0.00 0.00 0.00 93 1015.0
20260905155714 56 305 0.0 0.0 0.00 0.00 0.00 92 1015.0
20260905155213 57 305 0.0 0.0 0.00 0.00 0.00 89 1014.9
20260905154707 58 306 0.0 0.0 0.00 0.00 0.00 88 1014.9
20260905154203 59 306 0.0 0.0 0.00 0.00 0.00 86 1014.9
20260905153659 57 305 0.0 0.0 0.00 0.00 0.00 88 1014.9
20260905153154 58 306 0.0 0.0 0.00 0.00 0.00 87 1014.8
20260905152649 54 306 0.0 0.0 0.00 0.00 0.00 93 1014.7
20260905152143 54 306 0.0 0.0 0.00 0.00 0.00 91 1014.7
20260905151638 56 306 0.0 0.0 0.00 0.00 0.00 89 1014.6
20260905151134 58 306 0.0 0.0 0.00 0.00 0.00 89 1014.6
20260905150629 55 307 0.0 0.0 0.00 0.00 0.00 97 1014.6
20260905150127 54 307 0.0 0.0 0.00 0.00 0.00 97 1014.6
20260905145626 54 307 0.0 0.0 0.00 0.00 0.00 98 1014.7
20260905145125 53 307 0.0 0.0 0.00 0.00 0.00 98 1014.6
20260905144620 53 307 0.0 0.0 0.00 0.00 0.00 97 1014.7
20260905144119 53 307 0.0 0.0 0.00 0.00 0.00 97 1014.6
20260905143614 53 307 0.0 0.0 0.00 0.00 0.00 97 1014.7
20260905143109 53 307 0.0 0.0 0.00 0.00 0.00 97 1014.6
20260905142608 53 307 0.0 0.0 0.00 0.00 0.00 97 1014.6
20260905142107 52 307 0.0 0.0 0.00 0.00 0.00 98 1014.5
20260905141607 52 308 0.0 0.0 0.00 0.00 0.00 98 1014.6
20260905141104 52 308 0.0 0.0 0.00 0.00 0.00 98 1014.4
20260905140559 52 308 0.0 0.0 0.00 0.00 0.00 98 1014.4
20260905140057 52 308 0.0 0.0 0.00 0.00 0.00 98 1014.4
20260905135553 52 308 0.0 0.0 0.00 0.00 0.00 98 1014.3
20260905135053 51 308 0.0 0.0 0.00 0.00 0.00 98 1014.5
20260905134548 51 308 0.0 0.0 0.00 0.00 0.00 98 1014.3
20260905134047 52 308 0.0 0.0 0.00 0.00 0.00 98 1014.2
20260905133542 52 308 0.0 0.0 0.00 0.00 0.00 97 1014.3
20260905133036 52 308 0.0 0.0 0.00 0.00 0.00 97 1014.4
20260905132531 52 308 0.0 0.0 0.00 0.00 0.00 97 1014.5
20260905132026 52 308 0.0 0.0 0.00 0.00 0.00 97 1014.3
20260905131521 52 308 0.0 0.0 0.00 0.00 0.00 97 1014.3
20260905131016 52 308 0.0 0.0 0.00 0.00 0.00 97 1014.4
20260905130515 53 308 0.0 0.0 0.00 0.00 0.00 96 1014.2
20260905130010 53 308 0.0 0.0 0.00 0.00 0.00 96 1014.3
20260905125459 53 308 0.0 0.0 0.00 0.00 0.00 96 1014.2
20260905124954 53 308 0.0 0.0 0.00 0.00 0.00 96 1014.0
20260905124451 53 308 0.0 0.0 0.00 0.00 0.00 96 1014.1
20260905123946 53 308 0.0 0.0 0.00 0.00 0.00 96 1014.0
20260905123443 53 305 0.0 0.0 0.00 0.00 0.00 96 1014.1
20260905122942 53 305 0.0 0.0 0.00 0.00 0.00 96 1014.1
20260905122437 53 305 0.0 0.0 0.00 0.00 0.00 96 1014.1
20260905121933 53 305 0.0 0.0 0.00 0.00 0.00 96 1014.1
20260905121428 53 305 0.0 0.0 0.00 0.00 0.00 96 1014.2
20260905120927 53 305 0.0 0.0 0.00 0.00 0.00 96 1014.1
20260905120422 54 305 0.0 0.0 0.00 0.00 0.00 96 1014.1
20260905115917 54 305 0.0 0.0 0.00 0.00 0.00 96 1014.1
20260905115415 54 305 0.0 0.0 0.00 0.00 0.00 95 1014.2
20260905114910 54 305 0.0 0.0 0.00 0.00 0.00 95 1014.2
20260905114410 54 304 0.0 0.0 0.00 0.00 0.00 95 1014.3
20260905113903 54 304 0.0 0.0 0.00 0.00 0.00 96 1014.3
20260905113359 54 304 0.0 0.0 0.00 0.00 0.00 96 1014.4
20260905112854 54 304 0.0 0.0 0.00 0.00 0.00 96 1014.3
20260905112350 54 304 0.0 0.0 0.00 0.00 0.00 96 1014.4
20260905111844 54 304 0.0 0.0 0.00 0.00 0.00 96 1014.3
20260905111339 54 304 0.0 0.0 0.00 0.00 0.00 96 1014.2
20260905110838 54 304 0.0 0.0 0.00 0.00 0.00 96 1014.3
20260905110332 54 304 0.0 0.0 0.00 0.00 0.00 96 1014.4
20260905105828 54 304 0.0 0.0 0.00 0.00 0.00 96 1014.4
20260905105327 54 304 0.0 0.0 0.00 0.00 0.00 97 1014.4
20260905104826 54 304 0.0 0.0 0.00 0.00 0.00 97 1014.4
20260905104323 54 304 0.0 0.0 0.00 0.00 0.00 98 1014.3
20260905103822 54 304 0.0 0.0 0.00 0.00 0.00 98 1014.3
20260905103318 54 304 0.0 0.0 0.00 0.00 0.00 98 1014.4
20260905102814 54 304 0.0 0.0 0.00 0.00 0.00 99 1014.4
20260905102310 54 304 0.0 0.0 0.00 0.00 0.00 99 1014.4
20260905101810 53 303 0.0 0.0 0.00 0.00 0.00 99 1014.5
20260905101308 53 303 0.0 0.0 0.00 0.00 0.00 99 1014.5
20260905100803 53 303 0.0 0.0 0.00 0.00 0.00 99 1014.5
20260905100300 53 303 0.0 0.0 0.00 0.00 0.00 99 1014.4
20260905095759 53 303 0.0 0.0 0.00 0.00 0.00 99 1014.5
20260905095258 53 303 0.0 0.0 0.00 0.00 0.00 99 1014.6
20260905094753 53 303 0.0 0.0 0.00 0.00 0.00 99 1014.5
20260905094249 53 303 0.0 0.0 0.00 0.00 0.00 99 1014.5
20260905093748 53 303 0.0 0.0 0.00 0.00 0.00 99 1014.6
20260905093244 54 303 0.0 0.0 0.00 0.00 0.00 99 1014.8
20260905092739 54 303 0.0 0.0 0.00 0.00 0.00 99 1014.6
20260905092235 54 303 0.0 0.0 0.00 0.00 0.00 99 1014.5
20260905091734 54 303 0.0 0.0 0.00 0.00 0.00 99 1014.7
20260905091229 54 303 0.0 0.0 0.00 0.00 0.00 99 1014.6
20260905090728 54 303 0.0 0.0 0.00 0.00 0.00 99 1014.6
20260905090224 54 303 0.0 0.0 0.00 0.00 0.00 99 1014.7
20260905085723 54 303 0.0 0.0 0.00 0.00 0.00 99 1014.7
20260905085218 54 303 0.0 0.0 0.00 0.00 0.00 99 1014.6
20260905084718 54 303 0.0 0.0 0.00 0.00 0.00 99 1014.7
20260905084218 54 303 0.0 0.0 0.00 0.00 0.00 99 1014.7
20260905083714 54 303 0.0 0.0 0.00 0.00 0.00 99 1014.7
20260905083209 54 303 0.0 0.0 0.00 0.00 0.00 99 1014.7
20260905082705 54 303 0.0 0.0 0.00 0.00 0.00 99 1014.7
20260905082201 54 303 0.0 0.0 0.00 0.00 0.00 99 1014.7
20260905081700 54 303 0.0 0.0 0.00 0.00 0.00 99 1014.6
20260905081156 54 303 0.0 0.0 0.00 0.00 0.00 99 1014.8
20260905080655 54 303 0.0 0.0 0.00 0.00 0.00 99 1014.7
20260905080155 55 303 0.0 0.0 0.00 0.00 0.00 99 1014.8
20260905075649 55 303 0.0 0.0 0.00 0.00 0.00 99 1014.6
20260905075148 55 303 0.0 0.0 0.00 0.00 0.00 99 1014.7
20260905074647 55 303 0.0 0.0 0.00 0.00 0.00 99 1014.7
20260905074143 55 303 0.0 0.0 0.00 0.00 0.00 99 1014.6
20260905073639 55 303 0.0 0.0 0.00 0.00 0.00 99 1014.7
20260905073134 55 303 0.0 0.0 0.00 0.00 0.00 99 1014.7
20260905072633 55 303 0.0 0.0 0.00 0.00 0.00 99 1014.7
20260905072129 55 303 0.0 0.0 0.00 0.00 0.00 98 1014.8
20260905071625 55 303 0.0 0.0 0.00 0.00 0.00 98 1014.7
20260905071120 55 303 0.0 0.0 0.00 0.00 0.00 98 1014.7
20260905070616 55 303 0.0 0.0 0.00 0.00 0.00 98 1014.8
20260905070112 55 303 0.0 0.0 0.00 0.00 0.00 98 1014.7
20260905065610 55 303 0.0 0.0 0.00 0.00 0.00 98 1014.7
20260905065104 55 303 0.0 0.0 0.00 0.00 0.00 98 1014.7
20260905064559 55 303 0.0 0.0 0.00 0.00 0.00 98 1014.7
20260905064055 55 303 0.0 0.0 0.00 0.00 0.00 98 1014.5
20260905063553 55 303 0.0 0.0 0.00 0.00 0.00 98 1014.6
20260905063049 55 303 0.0 0.0 0.00 0.00 0.00 98 1014.6
20260905062544 55 303 0.0 0.0 0.00 0.00 0.00 98 1014.5
20260905062039 55 303 0.0 0.0 0.00 0.00 0.00 97 1014.5
20260905061534 55 303 0.0 0.0 0.00 0.00 0.00 97 1014.7
20260905061033 55 303 0.0 0.0 0.00 0.00 0.00 97 1014.6
20260905060529 56 303 0.0 0.0 0.00 0.00 0.00 97 1014.7
20260905060024 56 303 0.0 0.0 0.00 0.00 0.00 97 1014.7
20260905055523 56 303 0.0 0.0 0.00 0.00 0.00 97 1014.7
20260905055018 56 303 0.0 0.0 0.00 0.00 0.00 96 1014.7
20260905054514 56 303 0.0 0.0 0.00 0.00 0.00 96 1014.6
20260905054009 56 303 0.0 0.0 0.00 0.00 0.00 96 1014.7
20260905053503 56 303 0.0 0.0 0.00 0.00 0.00 96 1014.8
20260905052959 56 303 0.0 0.0 0.00 0.00 0.00 96 1014.9
20260905052458 56 303 0.0 0.0 0.00 0.00 0.00 96 1014.9
20260905051958 57 303 0.0 0.0 0.00 0.00 0.00 96 1014.9
20260905051453 57 303 0.0 0.0 0.00 0.00 0.00 95 1014.9
20260905050951 57 303 0.0 0.0 0.00 0.00 0.00 95 1015.0
20260905050446 57 303 0.0 0.0 0.00 0.00 0.00 95 1015.1
20260905045943 57 303 0.0 0.0 0.00 0.00 0.00 95 1015.1
20260905045437 57 303 0.0 0.0 0.00 0.00 0.00 94 1015.1
20260905044932 57 303 0.0 1.0 0.00 0.00 0.00 94 1014.9
20260905044427 57 303 0.0 1.0 0.00 0.00 0.00 94 1014.9
20260905043926 57 243 0.0 0.0 0.00 0.00 0.00 93 1014.9
20260905043420 57 243 0.0 0.0 0.00 0.00 0.00 93 1015.0
20260905042921 57 244 0.0 0.0 0.00 0.00 0.00 93 1014.9
20260905042415 57 281 0.0 0.0 0.00 0.00 0.00 92 1014.9
20260905041910 57 253 0.0 0.0 0.00 0.00 0.00 92 1014.8
20260905041407 57 246 0.0 0.0 0.00 0.00 0.00 92 1014.8
20260905040901 57 246 0.0 0.0 0.00 0.00 0.00 91 1014.9
20260905040401 57 233 0.0 0.0 0.00 0.00 0.00 91 1014.9
20260905035900 57 257 0.0 0.0 0.00 0.00 0.00 90 1014.8
20260905035355 58 246 0.0 0.0 0.00 0.00 0.00 90 1014.7
20260905034852 58 246 0.0 0.0 0.00 0.00 0.00 90 1014.7
20260905034347 58 258 0.0 0.0 0.00 0.00 0.00 89 1014.7
20260905033845 58 247 0.0 1.0 0.00 0.00 0.00 89 1014.7
20260905033341 58 247 0.0 1.0 0.00 0.00 0.00 89 1014.6
20260905032840 59 226 2.0 3.0 0.00 0.00 0.00 88 1014.5
20260905032336 59 242 1.0 3.0 0.00 0.00 0.00 88 1014.7
20260905031831 59 253 0.0 1.0 0.00 0.00 0.00 87 1014.6
20260905031327 59 265 0.0 0.0 0.00 0.00 0.00 86 1014.6
20260905030822 59 257 0.0 0.0 0.00 0.00 0.00 85 1014.6
20260905030318 60 249 0.0 0.0 0.00 0.00 0.00 85 1014.5
20260905025816 60 251 0.0 1.0 0.00 0.00 0.00 84 1014.6
20260905025312 60 261 0.0 3.0 0.00 0.00 0.00 82 1014.5
20260905024808 61 247 1.0 3.0 0.00 0.00 0.00 82 1014.5
20260905024303 61 247 0.0 0.0 0.00 0.00 0.00 81 1014.4
20260905023758 62 258 0.0 0.0 0.00 0.00 0.00 80 1014.4
20260905023254 62 255 0.0 4.0 0.00 0.00 0.00 78 1014.5
20260905022753 63 244 0.0 0.0 0.00 0.00 0.00 76 1014.6
20260905022248 64 260 0.0 0.0 0.00 0.00 0.00 74 1014.5
20260905021748 64 265 0.0 1.0 0.00 0.00 0.00 72 1014.4
20260905021243 65 252 1.0 1.0 0.00 0.00 0.00 73 1014.4
20260905020744 66 274 1.0 3.0 0.00 0.00 0.00 70 1014.4
20260905020239 66 253 0.0 4.0 0.00 0.00 0.00 69 1014.3
20260905015737 66 256 3.0 8.0 0.00 0.00 0.00 68 1014.4
20260905015232 66 250 0.0 5.0 0.00 0.00 0.00 69 1014.4
20260905014731 66 244 1.0 4.0 0.00 0.00 0.00 70 1014.3
20260905014227 66 254 4.0 8.0 0.00 0.00 0.00 70 1014.5
20260905013722 65 262 3.0 7.0 0.00 0.00 0.00 67 1014.4
20260905013218 66 238 2.0 7.0 0.00 0.00 0.00 68 1014.5
20260905012713 67 277 4.0 5.0 0.00 0.00 0.00 66 1014.5
20260905012209 67 239 3.0 8.0 0.00 0.00 0.00 66 1014.4
20260905011700 67 278 8.0 10.0 0.00 0.00 0.00 65 1014.4
20260905011155 67 260 4.0 10.0 0.00 0.00 0.00 64 1014.3
20260905010655 68 262 4.0 11.0 0.00 0.00 0.00 61 1014.3
20260905010151 68 204 3.0 8.0 0.00 0.00 0.00 60 1014.3
20260905005648 70 258 10.0 14.0 0.00 0.00 0.00 58 1014.2
20260905005143 69 239 3.0 4.0 0.00 0.00 0.00 60 1014.2
20260905004642 68 262 3.0 7.0 0.00 0.00 0.00 60 1014.2
20260905004138 68 277 5.0 8.0 0.00 0.00 0.00 60 1014.3
20260905003633 68 263 11.0 16.0 0.00 0.00 0.00 59 1014.3
20260905003129 68 238 5.0 10.0 0.00 0.00 0.00 63 1014.2
20260905002625 70 289 8.0 14.0 0.00 0.00 0.00 60 1014.1
20260905002119 68 281 6.0 11.0 0.00 0.00 0.00 64 1014.0
20260905001615 69 259 12.0 15.0 0.00 0.00 0.00 63 1014.1
20260905001114 71 255 4.0 11.0 0.00 0.00 0.00 61 1014.2
20260905000610 69 267 7.0 12.0 0.00 0.00 0.00 62 1014.1
20260905000106 69 242 4.0 14.0 0.00 0.00 0.00 62 1014.2
20260904235605 71 247 11.0 14.0 0.00 0.00 0.00 60 1014.3
20260904235105 72 293 3.0 7.0 0.00 0.00 0.00 61 1014.1
20260904234600 72 256 3.0 15.0 0.00 0.00 0.00 62 1014.2
20260904234056 73 275 7.0 11.0 0.00 0.00 0.00 56 1014.1
20260904233555 70 294 2.0 7.0 0.00 0.00 0.00 60 1014.1
20260904233052 70 236 5.0 12.0 0.00 0.00 0.00 59 1014.1
20260904232548 71 265 4.0 11.0 0.00 0.00 0.00 59 1014.0
20260904232045 71 253 4.0 8.0 0.00 0.00 0.00 58 1014.0
20260904231540 71 227 3.0 8.0 0.00 0.00 0.00 56 1014.1
20260904231035 70 277 7.0 12.0 0.00 0.00 0.00 60 1014.0
20260904230534 72 272 4.0 8.0 0.00 0.00 0.00 56 1014.0
20260904230030 73 293 5.0 8.0 0.00 0.00 0.00 54 1014.1
20260904225527 70 273 7.0 10.0 0.00 0.00 0.00 58 1014.1
20260904225026 71 245 8.0 11.0 0.00 0.00 0.00 56 1014.1
20260904224522 72 260 8.0 10.0 0.00 0.00 0.00 54 1014.1
20260904224022 72 262 9.0 15.0 0.00 0.00 0.00 56 1014.2
20260904223521 72 265 8.0 14.0 0.00 0.00 0.00 56 1014.1
20260904223018 72 256 9.0 12.0 0.00 0.00 0.00 56 1014.2
20260904222513 72 267 5.0 8.0 0.00 0.00 0.00 55 1014.1
20260904222008 71 224 2.0 14.0 0.00 0.00 0.00 58 1014.1
20260904221503 72 234 7.0 18.0 0.00 0.00 0.00 56 1014.3
20260904221003 73 282 4.0 14.0 0.00 0.00 0.00 54 1014.3
20260904220502 71 263 6.0 12.0 0.00 0.00 0.00 56 1014.2
20260904215958 72 245 3.0 12.0 0.00 0.00 0.00 56 1014.3
20260904215453 73 254 5.0 12.0 0.00 0.00 0.00 54 1014.1
20260904214949 73 241 4.0 5.0 0.00 0.00 0.00 54 1014.2
20260904214444 72 262 5.0 14.0 0.00 0.00 0.00 55 1014.3
20260904213939 73 228 3.0 10.0 0.00 0.00 0.00 55 1014.2
20260904213438 72 264 9.0 10.0 0.00 0.00 0.00 53 1014.2
20260904212934 72 237 10.0 14.0 0.00 0.00 0.00 53 1014.2
20260904212433 72 279 13.0 18.0 0.00 0.00 0.00 54 1014.1
20260904211930 71 239 2.0 11.0 0.00 0.00 0.00 55 1014.2
20260904211429 72 265 5.0 11.0 0.00 0.00 0.00 55 1014.2
20260904210925 73 245 7.0 12.0 0.00 0.00 0.00 53 1014.2
20260904210424 75 273 5.0 7.0 0.00 0.00 0.00 51 1014.2
20260904205920 73 252 3.0 5.0 0.00 0.00 0.00 50 1014.2
20260904205415 73 262 6.0 10.0 0.00 0.00 0.00 49 1014.2
20260904204912 73 256 1.0 8.0 0.00 0.00 0.00 45 1014.3
20260904204408 73 264 4.0 8.0 0.00 0.00 0.00 46 1014.3
20260904203904 73 249 4.0 8.0 0.00 0.00 0.00 45 1014.1
20260904203400 74 241 5.0 8.0 0.00 0.00 0.00 46 1014.2
20260904202856 73 245 0.0 3.0 0.00 0.00 0.00 50 1014.3
20260904202352 72 255 0.0 4.0 0.00 0.00 0.00 51 1014.2
20260904201847 71 251 5.0 5.0 0.00 0.00 0.00 52 1014.2
20260904201342 71 252 3.0 5.0 0.00 0.00 0.00 54 1014.2
20260904200837 71 260 1.0 3.0 0.00 0.00 0.00 52 1014.2
20260904200336 71 259 4.0 5.0 0.00 0.00 0.00 57 1014.3